FENGYUN 1C DEB, 47029

Orbit data source: Space-Track

FENGYUN 1C DEB, 47029 is space debris in SSO originally from a launch on Mon, 10 May 1999 UTC launched from the Taiyaun Space Center, China (TSC). Fengyun 1C debris stems from the Chinese weather satellite Fengyun-1C, which was intentionally destroyed by a Chinese anti-satellite missile in 2007. This event dramatically increased the amount of space debris, with thousands of trackable fragments posing hazards to satellites and human spaceflight. The Fengyun 1C debris cloud has become a focal point in discussions about space sustainability and the need for international regulations to prevent the creation of new debris.

Loading next visibility...
Identifier
47029, 1999-025FBF
Orbit
SSO
Country
Flag of CNCN / PRC
Related business
Manufacturer
Unknown
Mission
Spacecraft
Bus & Motor
Unknown
Mass
Unknown
Launch date (UTC)
1999-05-10 (27 years ago)
Launch vehicle
Unknown
Launch site
Taiyaun Space Center, China (TSC)
Object type
Payload
Rocket body
Debris
Shape & HBR
Unknown shape, 0.1 m
Radar Cross Section
Small (<0.1 m²)

Expand to show TLE details & history
Last TLE update: 6 days ago

TLE from 6 days ago
0 FENGYUN 1C DEB
1 47029U 99025FBF 26138.80979761  .00015603  00000-0  86605-3 0  9997
2 47029  98.9340 170.0404 0107848 192.1136 167.7493 15.08947350 54372
Epoch: 2026-05-18T19:26Z
TLE epoch observation values (Epoch: 2026-05-18T19:26:06.513Z)
Latitude
Longitude
2.02054°
Altitude
615.4 km
Speed
7.511 km/s
True Right ascension
11h 20m 09s
True Declination
0° 00' 00"
Sunlit
Object was in daylight at epoch
Visualization orbit readout
Latitude
Unknown
Longitude
Unknown
Altitude
Unknown
Speed
Unknown
Apparent Right ascension
Unknown
Apparent Declination
Unknown
Sunlit
N/A
Visualization observer readout
Local Sidereal Time
11:06:11
Azimuth
Unknown
Elevation
Unknown
Doppler factor
Unknown
Orbital elements
Apogee altitude
611.04 km
Perigee altitude
461.894 km
Semi-major axis
6,914.604 km
Eccentricity
0.01078
Inclination
98.934°
RAAN
170.0404°
Arg. of periapsis
192.1136°
True anomaly
168.00812°
Mean anomaly
167.7493°
Eccentric anomaly
167.87905°
Mean motion
3.77478 °/min
Orbital period
95.37 mins
BSTAR
0.00086605
Loading maneuver chart data...
Computing Atmospheric mass density...

Documentation

Showing up to 5 results
|